Location: Unspecified
(0.0000°N, 0.0000°E)
Time: 04:14:01
(UTC+00:00)

SKYMED 3 - Visible Passes

Search period start: 24 October 2017 00:00
Search period end: 03 November 2017 00:00
Orbit: 621 x 623 km, 97.9° (Epoch: 23 October)

Date Brightness Start Highest point End Pass type
(mag) Time Alt. Az. Time Alt. Az. Time Alt. Az.
24 Oct 7.4 04:55:59 10° SE 04:59:07 19° ENE 05:02:12 10° NNE visible
24 Oct 7.7 18:42:00 10° NW 18:43:55 13° WNW 18:45:51 10° WSW visible
25 Oct 6.5 05:13:09 10° SE 05:17:05 34° ENE 05:21:01 10° NNE visible
28 Oct 6.9 18:16:17 10° NNW 18:19:57 27° WNW 18:23:39 10° SW visible
29 Oct 7.5 04:50:28 10° ESE 04:53:07 16° ENE 04:55:46 10° NE visible
29 Oct 7.5 18:35:22 10° NW 18:37:56 16° WNW 18:40:32 10° WSW visible
30 Oct 6.8 05:07:22 10° SE 05:11:06 28° ENE 05:14:49 10° NNE visible
02 Nov 6.5 18:10:05 10° NNW 18:13:59 33° WNW 18:17:53 10° SW visible
